+ View the NASA Portal
+ Center for Near-Earth Object Studies
IMPORTANT:
The SSD Announcement email list is now available. Major changes are coming in the near future, including possible hostname and/or URL changes. To be notified of such changes, subscribe to this email list.
Please visit
this page
for more details.
Don't show this message again
JPL Small-Body Database Browser
Search:
[
help
]
344425 (2002 CC234)
Classification:
Main-belt Asteroid
SPK-ID:
2344425
[
Ephemeris
|
Orbit Diagram
|
Orbital Elements
|
Mission Design
|
Physical Parameters
|
Discovery Circumstances
|
Close-Approach Data
]
[ show orbit diagram ]
Orbital Elements at Epoch 2458600.5 (2019-Apr-27.0) TDB
Reference:
JPL 6
(heliocentric ecliptic J2000)
Element
Value
Uncertainty (1-sigma)
Units
e
.3753656538786482
6.1195e-08
a
3.169182566110159
2.8128e-08
au
q
1.979580279921407
1.9231e-07
au
i
24.90416698965676
1.4311e-05
deg
node
331.780521846231
1.7373e-05
deg
peri
99.67051719242413
2.9311e-05
deg
M
46.02755649826377
1.6789e-05
deg
t
p
2458337.027839246139
(2018-Aug-06.52783925)
9.4235e-05
TDB
period
2060.721556552062
5.64
2.7435e-05
7.511e-08
d
yr
n
.174696090723844
2.3258e-09
deg/d
Q
4.358784852298911
3.8687e-08
au
Orbit Determination Parameters
# obs. used (total)
135
data-arc span
6254 days (17.12 yr)
first obs. used
2002-01-21
last obs. used
2019-03-07
planetary ephem.
DE431
SB-pert. ephem.
SB431-N16
condition code
0
norm. resid. RMS
.55162
source
ORB
producer
Otto Matic
solution date
2019-Jul-13 16:26:35
Additional Information
Earth MOID
= 1.1524 au
Jupiter MOID
= 1.75092 au
T_jup
= 2.954
[ show covariance matrix ]
[
Ephemeris
|
Orbit Diagram
|
Orbital Elements
|
Mission Design
|
Physical Parameters
|
Discovery Circumstances
|
Close-Approach Data
]
Physical Parameter Table
Parameter
Symbol
Value
Units
Sigma
Reference
Notes
absolute magnitude
H
16.2
n/a
MPO264872
344425 (2002 CC234)
Discovered 2002-Feb-12 by NEAT at Palomar
Reference:
20121128/Numbers.arc
Last Updated:
2012-12-03
[ show close-approach data ]
[
Ephemeris
|
Orbit Diagram
|
Orbital Elements
|
Mission Design
|
Physical Parameters
|
Discovery Circumstances
|
Close-Approach Data
]
2019-Dec-11 17:48 UT
(server date/time)
Site Manager:
Ryan S. Park
Webmaster
:
Alan B. Chamberlin